Time,TemperatureF,DewpointF,PressureIn,WindDirection,WindDirectionDegrees,WindSpeedMPH,WindSpeedGustMPH,Humidity,HourlyPrecipIn,Conditions,Clouds,dailyrainin,SoftwareType,DateUTC
2013-02-10 00:00:00,14.3,11.9,30.52,WSW,243,0.0,8.0,90,0.00,,,0.00,Wunderground v.1.15,2013-02-10 05:00:00,
2013-02-10 00:05:00,14.3,11.9,30.52,WSW,243,0.0,8.0,90,0.00,,,0.00,Wunderground v.1.15,2013-02-10 05:05:00,
2013-02-10 00:10:00,14.3,11.9,30.51,WSW,243,0.0,8.0,90,0.00,,,0.00,Wunderground v.1.15,2013-02-10 05:10:00,
2013-02-10 00:15:00,14.3,11.9,30.52,WSW,243,0.0,8.0,90,0.00,,,0.00,Wunderground v.1.15,2013-02-10 05:15:00,
2013-02-10 00:20:00,14.3,11.9,30.52,WSW,243,0.0,8.0,90,0.00,,,0.00,Wunderground v.1.15,2013-02-10 05:20:00,
2013-02-10 00:25:00,14.3,11.9,30.52,WSW,243,0.0,8.0,90,0.00,,,0.00,Wunderground v.1.15,2013-02-10 05:25:00,
2013-02-10 00:30:00,14.2,11.8,30.51,WSW,243,0.0,8.0,90,0.00,,,0.00,Wunderground v.1.15,2013-02-10 05:30:00,
2013-02-10 00:35:00,14.1,11.5,30.51,WSW,243,0.0,8.0,89,0.00,,,0.00,Wunderground v.1.15,2013-02-10 05:35:00,
2013-02-10 00:40:00,13.9,11.3,30.51,WSW,243,0.0,8.0,89,0.00,,,0.00,Wunderground v.1.15,2013-02-10 05:40:00,
2013-02-10 00:45:00,13.8,11.4,30.51,WSW,243,0.0,8.0,90,0.00,,,0.00,Wunderground v.1.15,2013-02-10 05:45:00,
2013-02-10 00:50:00,13.7,11.3,30.51,WSW,243,0.0,8.0,90,0.00,,,0.00,Wunderground v.1.15,2013-02-10 05:50:00,
2013-02-10 00:55:00,13.6,11.2,30.51,WSW,243,0.0,8.0,90,0.00,,,0.00,Wunderground v.1.15,2013-02-10 05:55:00,
2013-02-10 01:00:00,13.5,11.1,30.51,WSW,243,0.0,8.0,90,0.00,,,0.00,Wunderground v.1.15,2013-02-10 06:00:00,
2013-02-10 01:05:00,13.3,10.9,30.51,WSW,243,0.0,8.0,90,0.00,,,0.00,Wunderground v.1.15,2013-02-10 06:05:00,
2013-02-10 01:10:00,13.3,10.9,30.51,WSW,243,0.0,8.0,90,0.00,,,0.00,Wunderground v.1.15,2013-02-10 06:10:00,
2013-02-10 01:15:00,13.2,10.8,30.51,WSW,243,0.0,8.0,90,0.00,,,0.00,Wunderground v.1.15,2013-02-10 06:15:00,
2013-02-10 01:20:00,13.0,10.6,30.51,WSW,243,0.0,8.0,90,0.00,,,0.00,Wunderground v.1.15,2013-02-10 06:20:00,
2013-02-10 01:25:00,12.8,10.4,30.51,WSW,243,0.0,8.0,90,0.00,,,0.00,Wunderground v.1.15,2013-02-10 06:25:00,
2013-02-10 01:30:00,12.6,10.2,30.51,WSW,244,0.0,8.0,90,0.00,,,0.00,Wunderground v.1.15,2013-02-10 06:30:00,
2013-02-10 01:35:00,12.2,9.8,30.50,WSW,243,0.0,8.0,90,0.00,,,0.00,Wunderground v.1.15,2013-02-10 06:35:00,
2013-02-10 01:40:00,11.7,9.1,30.50,WSW,243,0.0,8.0,89,0.00,,,0.00,Wunderground v.1.15,2013-02-10 06:40:00,
2013-02-10 01:45:00,11.3,8.9,30.50,WSW,243,0.0,8.0,90,0.00,,,0.00,Wunderground v.1.15,2013-02-10 06:45:00,
2013-02-10 01:50:00,11.1,8.7,30.50,WSW,243,0.0,8.0,90,0.00,,,0.00,Wunderground v.1.15,2013-02-10 06:50:00,
2013-02-10 01:55:00,11.0,8.6,30.51,WSW,243,0.0,8.0,90,0.00,,,0.00,Wunderground v.1.15,2013-02-10 06:55:00,
2013-02-10 02:00:00,10.6,8.2,30.51,ESE,105,0.0,8.0,90,0.00,,,0.00,Wunderground v.1.15,2013-02-10 07:00:00,
2013-02-10 02:05:00,9.9,7.3,30.51,ESE,105,0.0,8.0,89,0.00,,,0.00,Wunderground v.1.15,2013-02-10 07:05:00,
2013-02-10 02:10:00,9.7,7.4,30.51,ESE,105,0.0,8.0,90,0.00,,,0.00,Wunderground v.1.15,2013-02-10 07:10:00,
2013-02-10 02:15:00,9.6,7.3,30.51,ESE,107,0.0,8.0,90,0.00,,,0.00,Wunderground v.1.15,2013-02-10 07:15:00,
2013-02-10 02:20:00,9.2,6.6,30.51,ESE,107,0.0,8.0,89,0.00,,,0.00,Wunderground v.1.15,2013-02-10 07:20:00,
2013-02-10 02:25:00,8.8,6.2,30.52,ESE,107,0.0,8.0,89,0.00,,,0.00,Wunderground v.1.15,2013-02-10 07:25:00,
2013-02-10 02:30:00,8.7,6.4,30.51,ESE,107,0.0,8.0,90,0.00,,,0.00,Wunderground v.1.15,2013-02-10 07:30:00,
2013-02-10 02:35:00,7.8,5.0,30.52,East,96,0.0,8.0,88,0.00,,,0.00,Wunderground v.1.15,2013-02-10 07:35:00,
2013-02-10 02:40:00,7.4,4.6,30.52,East,96,1.0,8.0,88,0.00,,,0.00,Wunderground v.1.15,2013-02-10 07:40:00,
2013-02-10 02:45:00,7.5,4.9,30.51,East,96,0.0,8.0,89,0.00,,,0.00,Wunderground v.1.15,2013-02-10 07:45:00,
2013-02-10 02:50:00,7.8,5.2,30.51,East,96,0.0,8.0,89,0.00,,,0.00,Wunderground v.1.15,2013-02-10 07:50:00,
2013-02-10 02:55:00,8.0,5.4,30.51,East,96,0.0,8.0,89,0.00,,,0.00,Wunderground v.1.15,2013-02-10 07:55:00,
2013-02-10 03:00:00,8.0,5.4,30.50,East,96,0.0,8.0,89,0.00,,,0.00,Wunderground v.1.15,2013-02-10 08:00:00,
2013-02-10 03:05:00,7.9,5.3,30.51,East,96,0.0,8.0,89,0.00,,,0.00,Wunderground v.1.15,2013-02-10 08:05:00,
2013-02-10 03:10:00,7.8,5.2,30.51,East,96,0.0,8.0,89,0.00,,,0.00,Wunderground v.1.15,2013-02-10 08:10:00,
2013-02-10 03:15:00,7.7,4.9,30.51,East,96,0.0,8.0,88,0.00,,,0.00,Wunderground v.1.15,2013-02-10 08:15:00,
2013-02-10 03:20:00,7.9,5.3,30.50,East,96,0.0,8.0,89,0.00,,,0.00,Wunderground v.1.15,2013-02-10 08:20:00,
2013-02-10 03:25:00,8.0,5.4,30.50,East,96,0.0,8.0,89,0.00,,,0.00,Wunderground v.1.15,2013-02-10 08:25:00,
2013-02-10 03:30:00,7.8,5.0,30.50,East,96,0.0,8.0,88,0.00,,,0.00,Wunderground v.1.15,2013-02-10 08:30:00,
2013-02-10 03:35:00,7.8,5.2,30.50,East,96,0.0,8.0,89,0.00,,,0.00,Wunderground v.1.15,2013-02-10 08:35:00,
2013-02-10 03:40:00,7.8,5.2,30.50,East,96,0.0,8.0,89,0.00,,,0.00,Wunderground v.1.15,2013-02-10 08:40:00,
2013-02-10 03:45:00,7.9,5.3,30.50,East,96,0.0,8.0,89,0.00,,,0.00,Wunderground v.1.15,2013-02-10 08:45:00,
2013-02-10 03:50:00,8.0,5.4,30.50,East,96,0.0,8.0,89,0.00,,,0.00,Wunderground v.1.15,2013-02-10 08:50:00,
2013-02-10 03:55:00,7.9,5.3,30.50,East,96,0.0,8.0,89,0.00,,,0.00,Wunderground v.1.15,2013-02-10 08:55:00,
2013-02-10 04:00:00,7.9,5.3,30.50,East,96,0.0,8.0,89,0.00,,,0.00,Wunderground v.1.15,2013-02-10 09:00:00,
2013-02-10 04:05:00,8.1,5.5,30.51,East,96,0.0,8.0,89,0.00,,,0.00,Wunderground v.1.15,2013-02-10 09:05:00,
2013-02-10 04:10:00,8.3,5.7,30.51,SW,223,0.0,8.0,89,0.00,,,0.00,Wunderground v.1.15,2013-02-10 09:10:00,
2013-02-10 04:15:00,8.4,5.8,30.51,SW,222,0.0,8.0,89,0.00,,,0.00,Wunderground v.1.15,2013-02-10 09:15:00,
2013-02-10 04:20:00,8.3,5.7,30.51,SW,223,0.0,8.0,89,0.00,,,0.00,Wunderground v.1.15,2013-02-10 09:20:00,
2013-02-10 04:30:00,8.0,5.4,30.51,SW,222,0.0,8.0,89,0.00,,,0.00,Wunderground v.1.15,2013-02-10 09:30:00,
2013-02-10 04:35:00,8.0,5.4,30.51,SW,222,0.0,8.0,89,0.00,,,0.00,Wunderground v.1.15,2013-02-10 09:35:00,
2013-02-10 04:40:00,7.9,5.3,30.51,SW,222,0.0,8.0,89,0.00,,,0.00,Wunderground v.1.15,2013-02-10 09:40:00,
2013-02-10 04:45:00,7.7,4.9,30.52,SW,222,0.0,8.0,88,0.00,,,0.00,Wunderground v.1.15,2013-02-10 09:45:00,
2013-02-10 04:50:00,7.5,4.7,30.52,SW,236,0.0,8.0,88,0.00,,,0.00,Wunderground v.1.15,2013-02-10 09:50:00,
2013-02-10 04:55:00,7.3,4.5,30.52,SW,214,0.0,8.0,88,0.00,,,0.00,Wunderground v.1.15,2013-02-10 09:55:00,
2013-02-10 05:00:00,7.2,4.4,30.52,SW,214,0.0,8.0,88,0.00,,,0.00,Wunderground v.1.15,2013-02-10 10:00:00,
2013-02-10 05:05:00,7.2,4.4,30.53,SW,214,0.0,8.0,88,0.00,,,0.00,Wunderground v.1.15,2013-02-10 10:05:00,
2013-02-10 05:10:00,7.2,4.4,30.53,SW,214,0.0,8.0,88,0.00,,,0.00,Wunderground v.1.15,2013-02-10 10:10:00,
2013-02-10 05:15:00,7.2,4.4,30.53,SW,214,0.0,8.0,88,0.00,,,0.00,Wunderground v.1.15,2013-02-10 10:15:00,
2013-02-10 05:20:00,7.3,4.7,30.53,SW,214,0.0,8.0,89,0.00,,,0.00,Wunderground v.1.15,2013-02-10 10:20:00,
2013-02-10 05:25:00,7.5,4.9,30.53,SW,214,0.0,8.0,89,0.00,,,0.00,Wunderground v.1.15,2013-02-10 10:25:00,
2013-02-10 05:30:00,7.6,5.0,30.53,SW,214,0.0,8.0,89,0.00,,,0.00,Wunderground v.1.15,2013-02-10 10:30:00,
2013-02-10 05:35:00,7.7,5.1,30.52,SW,214,0.0,8.0,89,0.00,,,0.00,Wunderground v.1.15,2013-02-10 10:35:00,
2013-02-10 05:40:00,7.7,5.1,30.52,SW,214,0.0,8.0,89,0.00,,,0.00,Wunderground v.1.15,2013-02-10 10:40:00,
2013-02-10 05:45:00,7.9,5.3,30.53,SSW,197,0.0,8.0,89,0.00,,,0.00,Wunderground v.1.15,2013-02-10 10:45:00,
2013-02-10 05:50:00,8.0,5.4,30.52,SSE,167,0.0,8.0,89,0.00,,,0.00,Wunderground v.1.15,2013-02-10 10:50:00,
2013-02-10 05:55:00,7.9,5.1,30.52,SSE,167,0.0,8.0,88,0.00,,,0.00,Wunderground v.1.15,2013-02-10 10:55:00,
2013-02-10 06:00:00,7.7,4.9,30.52,SSE,167,0.0,8.0,88,0.00,,,0.00,Wunderground v.1.15,2013-02-10 11:00:00,
2013-02-10 06:05:00,7.7,4.9,30.52,SSE,167,0.0,8.0,88,0.00,,,0.00,Wunderground v.1.15,2013-02-10 11:05:00,
2013-02-10 06:10:00,7.4,4.6,30.52,SSE,167,0.0,8.0,88,0.00,,,0.00,Wunderground v.1.15,2013-02-10 11:10:00,
2013-02-10 06:15:00,7.2,4.4,30.52,SSE,167,0.0,8.0,88,0.00,,,0.00,Wunderground v.1.15,2013-02-10 11:15:00,
2013-02-10 06:20:00,7.3,4.5,30.52,SSE,167,0.0,8.0,88,0.00,,,0.00,Wunderground v.1.15,2013-02-10 11:20:00,
2013-02-10 06:25:00,7.3,4.5,30.52,SSE,167,0.0,8.0,88,0.00,,,0.00,Wunderground v.1.15,2013-02-10 11:25:00,
2013-02-10 06:30:00,7.2,4.4,30.52,SSE,167,0.0,8.0,88,0.00,,,0.00,Wunderground v.1.15,2013-02-10 11:30:00,
2013-02-10 06:35:00,7.0,4.2,30.52,SSE,167,0.0,8.0,88,0.00,,,0.00,Wunderground v.1.15,2013-02-10 11:35:00,
2013-02-10 06:40:00,6.9,4.1,30.52,SSE,167,0.0,8.0,88,0.00,,,0.00,Wunderground v.1.15,2013-02-10 11:40:00,
2013-02-10 06:45:00,6.6,3.8,30.52,SSE,167,0.0,8.0,88,0.00,,,0.00,Wunderground v.1.15,2013-02-10 11:45:00,
2013-02-10 06:50:00,6.3,3.5,30.51,SSE,167,0.0,8.0,88,0.00,,,0.00,Wunderground v.1.15,2013-02-10 11:50:00,
2013-02-10 06:55:00,6.1,3.3,30.52,SSE,167,0.0,8.0,88,0.00,,,0.00,Wunderground v.1.15,2013-02-10 11:55:00,
2013-02-10 07:00:00,5.9,3.1,30.52,SW,221,0.0,8.0,88,0.00,,,0.00,Wunderground v.1.15,2013-02-10 12:00:00,
2013-02-10 07:05:00,5.9,3.1,30.52,SW,221,0.0,8.0,88,0.00,,,0.00,Wunderground v.1.15,2013-02-10 12:05:00,
2013-02-10 07:10:00,5.8,3.0,30.53,SW,220,0.0,8.0,88,0.00,,,0.00,Wunderground v.1.15,2013-02-10 12:10:00,
2013-02-10 07:15:00,5.7,2.9,30.53,SW,220,0.0,8.0,88,0.00,,,0.00,Wunderground v.1.15,2013-02-10 12:15:00,
2013-02-10 07:20:00,5.6,2.8,30.53,SW,221,0.0,8.0,88,0.00,,,0.00,Wunderground v.1.15,2013-02-10 12:20:00,
2013-02-10 07:25:00,5.4,2.6,30.54,SW,221,0.0,8.0,88,0.00,,,0.00,Wunderground v.1.15,2013-02-10 12:25:00,
2013-02-10 07:30:00,5.1,2.3,30.55,SW,221,0.0,8.0,88,0.00,,,0.00,Wunderground v.1.15,2013-02-10 12:30:00,
2013-02-10 07:35:00,4.9,2.1,30.55,SW,221,0.0,8.0,88,0.00,,,0.00,Wunderground v.1.15,2013-02-10 12:35:00,
2013-02-10 07:40:00,4.7,1.7,30.55,ESE,108,0.0,8.0,87,0.00,,,0.00,Wunderground v.1.15,2013-02-10 12:40:00,
2013-02-10 07:45:00,5.0,2.2,30.56,ESE,107,0.0,8.0,88,0.00,,,0.00,Wunderground v.1.15,2013-02-10 12:45:00,
2013-02-10 07:50:00,5.3,2.8,30.56,East,92,0.0,8.0,89,0.00,,,0.00,Wunderground v.1.15,2013-02-10 12:50:00,
2013-02-10 07:55:00,6.1,3.6,30.56,East,94,1.0,8.0,89,0.00,,,0.00,Wunderground v.1.15,2013-02-10 12:55:00,
2013-02-10 08:00:00,7.8,5.7,30.56,SSE,157,1.0,1.0,91,0.00,,,0.00,Wunderground v.1.15,2013-02-10 13:00:00,
2013-02-10 08:05:00,9.3,7.4,30.56,SE,136,0.0,8.0,92,0.00,,,0.00,Wunderground v.1.15,2013-02-10 13:05:00,
2013-02-10 08:10:00,10.0,7.9,30.56,East,94,0.0,8.0,91,0.00,,,0.00,Wunderground v.1.15,2013-02-10 13:10:00,
2013-02-10 08:15:00,10.2,7.6,30.56,ESE,102,1.0,8.0,89,0.00,,,0.00,Wunderground v.1.15,2013-02-10 13:15:00,
2013-02-10 08:20:00,10.3,7.7,30.56,East,98,1.0,1.0,89,0.00,,,0.00,Wunderground v.1.15,2013-02-10 13:20:00,
2013-02-10 08:25:00,10.8,8.2,30.56,East,98,0.0,8.0,89,0.00,,,0.00,Wunderground v.1.15,2013-02-10 13:25:00,
2013-02-10 08:30:00,10.6,7.7,30.56,East,97,0.0,8.0,88,0.00,,,0.00,Wunderground v.1.15,2013-02-10 13:30:00,
2013-02-10 08:40:00,11.3,8.4,30.56,East,99,0.0,8.0,88,0.00,,,0.00,Wunderground v.1.15,2013-02-10 13:40:00,
2013-02-10 08:45:00,11.4,8.5,30.56,East,99,0.0,8.0,88,0.00,,,0.00,Wunderground v.1.15,2013-02-10 13:45:00,
2013-02-10 08:50:00,11.8,8.9,30.55,SE,134,1.0,1.0,88,0.00,,,0.00,Wunderground v.1.15,2013-02-10 13:50:00,
2013-02-10 08:55:00,12.9,10.5,30.55,WSW,238,0.0,8.0,90,0.00,,,0.00,Wunderground v.1.15,2013-02-10 13:55:00,
2013-02-10 09:00:00,13.7,11.3,30.56,South,176,0.0,8.0,90,0.00,,,0.00,Wunderground v.1.15,2013-02-10 14:00:00,
2013-02-10 09:05:00,14.2,11.6,30.55,ESE,110,0.0,8.0,89,0.00,,,0.00,Wunderground v.1.15,2013-02-10 14:05:00,
2013-02-10 09:10:00,14.7,11.8,30.55,SSE,150,0.0,8.0,88,0.00,,,0.00,Wunderground v.1.15,2013-02-10 14:10:00,
2013-02-10 09:15:00,15.8,13.1,30.55,SSW,210,0.0,8.0,89,0.00,,,0.00,Wunderground v.1.15,2013-02-10 14:15:00,
2013-02-10 09:20:00,16.6,13.4,30.55,SSW,199,0.0,8.0,87,0.00,,,0.00,Wunderground v.1.15,2013-02-10 14:20:00,
2013-02-10 09:25:00,17.1,13.6,30.55,SSW,212,0.0,8.0,86,0.00,,,0.00,Wunderground v.1.15,2013-02-10 14:25:00,
2013-02-10 09:30:00,17.6,13.9,30.55,SSW,193,0.0,8.0,85,0.00,,,0.00,Wunderground v.1.15,2013-02-10 14:30:00,
2013-02-10 09:35:00,18.0,14.0,30.55,SW,223,0.0,8.0,84,0.00,,,0.00,Wunderground v.1.15,2013-02-10 14:35:00,
2013-02-10 09:40:00,18.6,14.6,30.55,WSW,240,0.0,8.0,84,0.00,,,0.00,Wunderground v.1.15,2013-02-10 14:40:00,
2013-02-10 09:45:00,19.1,14.8,30.55,SSW,193,0.0,8.0,83,0.00,,,0.00,Wunderground v.1.15,2013-02-10 14:45:00,
2013-02-10 09:50:00,19.7,15.1,30.55,SSW,212,0.0,8.0,82,0.00,,,0.00,Wunderground v.1.15,2013-02-10 14:50:00,
2013-02-10 09:55:00,19.9,14.7,30.55,SW,224,0.0,8.0,80,0.00,,,0.00,Wunderground v.1.15,2013-02-10 14:55:00,
2013-02-10 10:00:00,20.2,15.0,30.55,West,271,0.0,8.0,80,0.00,,,0.00,Wunderground v.1.15,2013-02-10 15:00:00,
2013-02-10 10:05:00,20.3,15.1,30.55,SW,218,0.0,8.0,80,0.00,,,0.00,Wunderground v.1.15,2013-02-10 15:05:00,
2013-02-10 10:10:00,20.6,15.4,30.55,SW,223,0.0,8.0,80,0.00,,,0.00,Wunderground v.1.15,2013-02-10 15:10:00,
2013-02-10 10:15:00,21.3,15.8,30.54,West,266,0.0,8.0,79,0.00,,,0.00,Wunderground v.1.15,2013-02-10 15:15:00,
2013-02-10 10:20:00,21.7,16.2,30.54,SW,228,0.0,8.0,79,0.00,,,0.00,Wunderground v.1.15,2013-02-10 15:20:00,
2013-02-10 10:25:00,22.0,15.9,30.54,SW,229,0.0,8.0,77,0.00,,,0.00,Wunderground v.1.15,2013-02-10 15:25:00,
2013-02-10 10:30:00,22.1,16.0,30.53,SW,233,1.0,8.0,77,0.00,,,0.00,Wunderground v.1.15,2013-02-10 15:30:00,
2013-02-10 10:35:00,22.3,16.2,30.53,SW,218,1.0,8.0,77,0.00,,,0.00,Wunderground v.1.15,2013-02-10 15:35:00,
2013-02-10 10:40:00,22.6,16.2,30.53,WSW,250,1.0,1.0,76,0.00,,,0.00,Wunderground v.1.15,2013-02-10 15:40:00,
2013-02-10 10:45:00,22.8,16.4,30.53,WSW,248,1.0,8.0,76,0.00,,,0.00,Wunderground v.1.15,2013-02-10 15:45:00,
2013-02-10 10:50:00,23.0,16.3,30.53,WSW,250,2.0,8.0,75,0.00,,,0.00,Wunderground v.1.15,2013-02-10 15:50:00,
2013-02-10 10:55:00,23.2,16.4,30.52,WSW,245,2.0,8.0,75,0.00,,,0.00,Wunderground v.1.15,2013-02-10 15:55:00,
2013-02-10 11:00:00,23.6,16.5,30.52,SW,217,1.0,8.0,74,0.00,,,0.00,Wunderground v.1.15,2013-02-10 16:00:00,
2013-02-10 11:05:00,24.0,16.6,30.52,WSW,249,1.0,8.0,73,0.00,,,0.00,Wunderground v.1.15,2013-02-10 16:05:00,
2013-02-10 11:10:00,24.2,16.5,30.51,WSW,253,1.0,8.0,72,0.00,,,0.00,Wunderground v.1.15,2013-02-10 16:10:00,
2013-02-10 11:15:00,24.7,17.0,30.51,WSW,254,1.0,8.0,72,0.00,,,0.00,Wunderground v.1.15,2013-02-10 16:15:00,
2013-02-10 11:20:00,25.0,16.9,30.51,West,272,1.0,8.0,71,0.00,,,0.00,Wunderground v.1.15,2013-02-10 16:20:00,
2013-02-10 11:25:00,25.2,17.1,30.50,SW,226,1.0,8.0,71,0.00,,,0.00,Wunderground v.1.15,2013-02-10 16:25:00,
2013-02-10 11:30:00,25.7,17.3,30.50,WSW,250,1.0,8.0,70,0.00,,,0.00,Wunderground v.1.15,2013-02-10 16:30:00,
2013-02-10 11:35:00,25.9,17.5,30.49,WSW,238,1.0,8.0,70,0.00,,,0.00,Wunderground v.1.15,2013-02-10 16:35:00,
2013-02-10 11:40:00,26.3,16.5,30.48,West,263,1.0,8.0,66,0.00,,,0.00,Wunderground v.1.15,2013-02-10 16:40:00,
2013-02-10 11:45:00,27.0,16.8,30.48,WSW,254,1.0,8.0,65,0.00,,,0.00,Wunderground v.1.15,2013-02-10 16:45:00,
2013-02-10 11:50:00,27.6,16.3,30.48,South,191,1.0,1.0,62,0.00,,,0.00,Wunderground v.1.15,2013-02-10 16:50:00,
2013-02-10 11:55:00,27.9,15.8,30.47,SW,232,1.0,4.0,60,0.00,,,0.00,Wunderground v.1.15,2013-02-10 16:55:00,
2013-02-10 12:00:00,28.1,16.7,30.47,WSW,252,2.0,2.0,62,0.00,,,0.00,Wunderground v.1.15,2013-02-10 17:00:00,
2013-02-10 12:05:00,28.3,17.3,30.46,WSW,243,1.0,8.0,63,0.00,,,0.00,Wunderground v.1.15,2013-02-10 17:05:00,
2013-02-10 12:10:00,28.8,17.4,30.46,SW,229,1.0,8.0,62,0.00,,,0.00,Wunderground v.1.15,2013-02-10 17:10:00,
2013-02-10 12:20:00,29.7,17.1,30.45,SW,219,1.0,1.0,59,0.00,,,0.00,Wunderground v.1.15,2013-02-10 17:20:00,
2013-02-10 12:25:00,29.7,16.3,30.45,SW,217,1.0,8.0,57,0.00,,,0.00,Wunderground v.1.15,2013-02-10 17:25:00,
2013-02-10 12:30:00,29.7,16.3,30.45,South,191,1.0,8.0,57,0.00,,,0.00,Wunderground v.1.15,2013-02-10 17:30:00,
2013-02-10 12:35:00,29.8,15.6,30.44,SSW,201,2.0,8.0,55,0.00,,,0.00,Wunderground v.1.15,2013-02-10 17:35:00,
2013-02-10 12:40:00,29.8,15.6,30.44,SW,214,2.0,2.0,55,0.00,,,0.00,Wunderground v.1.15,2013-02-10 17:40:00,
2013-02-10 12:45:00,29.8,15.6,30.44,SSW,197,2.0,8.0,55,0.00,,,0.00,Wunderground v.1.15,2013-02-10 17:45:00,
2013-02-10 12:50:00,29.7,15.5,30.43,SSW,208,2.0,2.0,55,0.00,,,0.00,Wunderground v.1.15,2013-02-10 17:50:00,
2013-02-10 12:55:00,30.1,15.9,30.43,SSW,203,1.0,8.0,55,0.00,,,0.00,Wunderground v.1.15,2013-02-10 17:55:00,
2013-02-10 13:00:00,30.4,15.7,30.43,WSW,238,2.0,8.0,54,0.00,,,0.00,Wunderground v.1.15,2013-02-10 18:00:00,
2013-02-10 13:05:00,30.7,16.4,30.42,South,170,2.0,8.0,55,0.00,,,0.00,Wunderground v.1.15,2013-02-10 18:05:00,
2013-02-10 13:10:00,31.2,16.0,30.42,SSW,205,2.0,2.0,53,0.00,,,0.00,Wunderground v.1.15,2013-02-10 18:10:00,
2013-02-10 13:15:00,31.4,15.3,30.42,SW,231,2.0,8.0,51,0.00,,,0.00,Wunderground v.1.15,2013-02-10 18:15:00,
2013-02-10 13:20:00,31.9,15.8,30.42,SSE,150,2.0,8.0,51,0.00,,,0.00,Wunderground v.1.15,2013-02-10 18:20:00,
2013-02-10 13:25:00,32.7,16.5,30.42,SSE,156,2.0,8.0,51,0.00,,,0.00,Wunderground v.1.15,2013-02-10 18:25:00,
2013-02-10 13:30:00,33.8,17.6,30.41,SSW,212,1.0,8.0,51,0.00,,,0.00,Wunderground v.1.15,2013-02-10 18:30:00,
2013-02-10 13:35:00,34.1,16.9,30.42,SSW,196,1.0,8.0,49,0.00,,,0.00,Wunderground v.1.15,2013-02-10 18:35:00,
2013-02-10 13:40:00,33.7,16.1,30.42,West,280,1.0,8.0,48,0.00,,,0.00,Wunderground v.1.15,2013-02-10 18:40:00,
2013-02-10 13:45:00,33.4,15.8,30.42,SW,231,1.0,8.0,48,0.00,,,0.00,Wunderground v.1.15,2013-02-10 18:45:00,
2013-02-10 13:50:00,33.1,16.5,30.42,SSW,210,1.0,1.0,50,0.00,,,0.00,Wunderground v.1.15,2013-02-10 18:50:00,
2013-02-10 13:55:00,33.1,16.0,30.42,SW,225,0.0,8.0,49,0.00,,,0.00,Wunderground v.1.15,2013-02-10 18:55:00,
2013-02-10 14:00:00,33.4,15.8,30.41,SSW,205,1.0,1.0,48,0.00,,,0.00,Wunderground v.1.15,2013-02-10 19:00:00,
2013-02-10 14:05:00,33.6,15.5,30.40,SE,132,0.0,8.0,47,0.00,,,0.00,Wunderground v.1.15,2013-02-10 19:05:00,
2013-02-10 14:10:00,34.3,16.1,30.39,South,169,1.0,8.0,47,0.00,,,0.00,Wunderground v.1.15,2013-02-10 19:10:00,
2013-02-10 14:15:00,35.1,15.9,30.39,SSW,198,1.0,8.0,45,0.00,,,0.00,Wunderground v.1.15,2013-02-10 19:15:00,
2013-02-10 14:20:00,35.4,15.6,30.39,WSW,253,1.0,8.0,44,0.00,,,0.00,Wunderground v.1.15,2013-02-10 19:20:00,
2013-02-10 14:25:00,35.4,16.6,30.39,SW,222,1.0,8.0,46,0.00,,,0.00,Wunderground v.1.15,2013-02-10 19:25:00,
2013-02-10 14:30:00,35.4,16.1,30.38,SSW,206,1.0,8.0,45,0.00,,,0.00,Wunderground v.1.15,2013-02-10 19:30:00,
2013-02-10 14:35:00,35.5,15.7,30.38,SW,231,2.0,8.0,44,0.00,,,0.00,Wunderground v.1.15,2013-02-10 19:35:00,
2013-02-10 14:40:00,35.6,15.3,30.38,SSW,193,2.0,8.0,43,0.00,,,0.00,Wunderground v.1.15,2013-02-10 19:40:00,
2013-02-10 14:45:00,35.8,14.4,30.37,WSW,246,2.0,8.0,41,0.00,,,0.00,Wunderground v.1.15,2013-02-10 19:45:00,
2013-02-10 14:50:00,36.2,15.8,30.37,SSW,210,2.0,8.0,43,0.00,,,0.00,Wunderground v.1.15,2013-02-10 19:50:00,
2013-02-10 14:55:00,36.7,16.3,30.37,SW,227,2.0,8.0,43,0.00,,,0.00,Wunderground v.1.15,2013-02-10 19:55:00,
2013-02-10 15:00:00,37.1,16.1,30.37,SSW,208,1.0,1.0,42,0.00,,,0.00,Wunderground v.1.15,2013-02-10 20:00:00,
2013-02-10 15:05:00,37.1,15.5,30.37,SSW,201,1.0,2.0,41,0.00,,,0.00,Wunderground v.1.15,2013-02-10 20:05:00,
2013-02-10 15:10:00,37.0,16.0,30.37,WSW,248,1.0,1.0,42,0.00,,,0.00,Wunderground v.1.15,2013-02-10 20:10:00,
2013-02-10 15:15:00,37.1,15.0,30.37,SSE,158,2.0,2.0,40,0.00,,,0.00,Wunderground v.1.15,2013-02-10 20:15:00,
2013-02-10 15:20:00,37.0,14.9,30.36,SW,232,2.0,2.0,40,0.00,,,0.01,Wunderground v.1.15,2013-02-10 20:20:00,
2013-02-10 15:25:00,37.1,15.5,30.36,SE,133,1.0,8.0,41,0.00,,,0.01,Wunderground v.1.15,2013-02-10 20:25:00,
2013-02-10 15:30:00,37.2,14.5,30.36,SSE,165,1.0,8.0,39,0.00,,,0.01,Wunderground v.1.15,2013-02-10 20:30:00,
2013-02-10 15:35:00,37.2,15.1,30.36,SSW,207,2.0,8.0,40,0.00,,,0.01,Wunderground v.1.15,2013-02-10 20:35:00,
2013-02-10 15:40:00,37.1,15.5,30.35,SE,129,1.0,8.0,41,0.00,,,0.01,Wunderground v.1.15,2013-02-10 20:40:00,
2013-02-10 15:45:00,36.9,15.4,30.35,South,177,2.0,8.0,41,0.00,,,0.01,Wunderground v.1.15,2013-02-10 20:45:00,
2013-02-10 15:50:00,36.9,15.4,30.34,SSE,167,2.0,8.0,41,0.00,,,0.01,Wunderground v.1.15,2013-02-10 20:50:00,
2013-02-10 15:55:00,36.9,15.4,30.34,SW,214,3.0,8.0,41,0.00,,,0.01,Wunderground v.1.15,2013-02-10 20:55:00,
2013-02-10 16:00:00,37.0,16.0,30.35,SE,135,2.0,2.0,42,0.00,,,0.01,Wunderground v.1.15,2013-02-10 21:00:00,
2013-02-10 16:05:00,37.2,16.2,30.34,SE,143,1.0,8.0,42,0.00,,,0.01,Wunderground v.1.15,2013-02-10 21:05:00,
2013-02-10 16:10:00,37.5,17.0,30.34,SSE,165,1.0,8.0,43,0.00,,,0.01,Wunderground v.1.15,2013-02-10 21:10:00,
2013-02-10 16:15:00,37.6,16.0,30.35,SSE,160,2.0,8.0,41,0.00,,,0.02,Wunderground v.1.15,2013-02-10 21:15:00,
2013-02-10 16:20:00,37.4,16.4,30.35,South,178,3.0,8.0,42,0.00,,,0.02,Wunderground v.1.15,2013-02-10 21:20:00,
2013-02-10 16:25:00,37.4,15.8,30.35,SSE,160,2.0,8.0,41,0.00,,,0.02,Wunderground v.1.15,2013-02-10 21:25:00,
2013-02-10 16:30:00,37.5,16.5,30.34,South,179,1.0,8.0,42,0.00,,,0.02,Wunderground v.1.15,2013-02-10 21:30:00,
2013-02-10 16:35:00,37.5,16.5,30.34,SSW,200,1.0,8.0,42,0.00,,,0.02,Wunderground v.1.15,2013-02-10 21:35:00,
2013-02-10 16:40:00,37.4,16.4,30.34,SSW,200,1.0,1.0,42,0.00,,,0.02,Wunderground v.1.15,2013-02-10 21:40:00,
2013-02-10 16:45:00,37.2,16.2,30.34,SSW,206,1.0,8.0,42,0.00,,,0.02,Wunderground v.1.15,2013-02-10 21:45:00,
2013-02-10 16:50:00,36.6,16.2,30.33,SW,222,1.0,1.0,43,0.00,,,0.02,Wunderground v.1.15,2013-02-10 21:50:00,
2013-02-10 17:00:00,35.4,15.6,30.33,South,188,0.0,8.0,44,0.00,,,0.02,Wunderground v.1.15,2013-02-10 22:00:00,
2013-02-10 17:05:00,34.8,16.6,30.33,SW,221,1.0,8.0,47,0.00,,,0.02,Wunderground v.1.15,2013-02-10 22:05:00,
2013-02-10 17:10:00,34.3,17.1,30.33,SW,219,1.0,1.0,49,0.00,,,0.02,Wunderground v.1.15,2013-02-10 22:10:00,
2013-02-10 17:15:00,33.8,18.0,30.33,South,191,0.0,8.0,52,0.00,,,0.02,Wunderground v.1.15,2013-02-10 22:15:00,
2013-02-10 17:20:00,33.0,17.7,30.33,ESE,120,1.0,8.0,53,0.00,,,0.02,Wunderground v.1.15,2013-02-10 22:20:00,
2013-02-10 17:25:00,32.5,18.1,30.33,SE,139,1.0,8.0,55,0.00,,,0.02,Wunderground v.1.15,2013-02-10 22:25:00,
2013-02-10 17:30:00,32.2,18.2,30.33,SE,146,1.0,8.0,56,0.00,,,0.03,Wunderground v.1.15,2013-02-10 22:30:00,
2013-02-10 17:35:00,31.6,18.1,30.33,SE,133,1.0,8.0,57,0.00,,,0.03,Wunderground v.1.15,2013-02-10 22:35:00,
2013-02-10 17:40:00,31.2,18.1,30.33,SSE,153,1.0,8.0,58,0.00,,,0.03,Wunderground v.1.15,2013-02-10 22:40:00,
2013-02-10 17:45:00,31.1,17.6,30.33,SE,135,1.0,8.0,57,0.00,,,0.03,Wunderground v.1.15,2013-02-10 22:45:00,
2013-02-10 17:50:00,30.9,17.4,30.33,South,182,1.0,8.0,57,0.00,,,0.03,Wunderground v.1.15,2013-02-10 22:50:00,
2013-02-10 17:55:00,30.7,17.3,30.32,SE,139,2.0,8.0,57,0.00,,,0.03,Wunderground v.1.15,2013-02-10 22:55:00,
2013-02-10 18:00:00,30.5,17.5,30.32,SSE,150,2.0,2.0,58,0.00,,,0.03,Wunderground v.1.15,2013-02-10 23:00:00,
2013-02-10 18:05:00,30.4,17.0,30.32,SSE,152,1.0,8.0,57,0.00,,,0.03,Wunderground v.1.15,2013-02-10 23:05:00,
2013-02-10 18:10:00,30.3,16.9,30.31,SE,138,1.0,8.0,57,0.00,,,0.03,Wunderground v.1.15,2013-02-10 23:10:00,
2013-02-10 18:15:00,30.2,16.8,30.31,SSE,159,1.0,8.0,57,0.00,,,0.03,Wunderground v.1.15,2013-02-10 23:15:00,
2013-02-10 18:20:00,30.2,16.8,30.32,SE,135,1.0,8.0,57,0.00,,,0.03,Wunderground v.1.15,2013-02-10 23:20:00,
2013-02-10 18:25:00,30.1,16.7,30.32,South,188,2.0,8.0,57,0.00,,,0.03,Wunderground v.1.15,2013-02-10 23:25:00,
2013-02-10 18:30:00,30.1,16.3,30.32,SE,133,1.0,8.0,56,0.00,,,0.03,Wunderground v.1.15,2013-02-10 23:30:00,
2013-02-10 18:35:00,30.1,16.3,30.31,SSE,156,1.0,8.0,56,0.00,,,0.03,Wunderground v.1.15,2013-02-10 23:35:00,
2013-02-10 18:40:00,30.0,15.8,30.31,SSE,148,1.0,8.0,55,0.00,,,0.03,Wunderground v.1.15,2013-02-10 23:40:00,
2013-02-10 18:45:00,30.0,16.2,30.31,ESE,122,1.0,8.0,56,0.00,,,0.03,Wunderground v.1.15,2013-02-10 23:45:00,
2013-02-10 18:50:00,30.1,15.9,30.31,SE,145,1.0,8.0,55,0.00,,,0.03,Wunderground v.1.15,2013-02-10 23:50:00,
2013-02-10 18:55:00,30.1,15.9,30.31,SSE,154,2.0,8.0,55,0.00,,,0.03,Wunderground v.1.15,2013-02-10 23:55:00,
2013-02-10 19:00:00,30.1,15.9,30.31,SE,131,2.0,2.0,55,0.00,,,0.03,Wunderground v.1.15,2013-02-11 00:00:00,
2013-02-10 19:05:00,30.0,15.3,30.31,SE,139,2.0,8.0,54,0.00,,,0.03,Wunderground v.1.15,2013-02-11 00:05:00,
2013-02-10 19:10:00,29.9,15.7,30.30,SE,146,2.0,8.0,55,0.00,,,0.03,Wunderground v.1.15,2013-02-11 00:10:00,
2013-02-10 19:15:00,30.0,15.3,30.30,ESE,121,1.0,8.0,54,0.00,,,0.03,Wunderground v.1.15,2013-02-11 00:15:00,
2013-02-10 19:20:00,29.9,15.3,30.29,SSE,160,1.0,1.0,54,0.00,,,0.03,Wunderground v.1.15,2013-02-11 00:20:00,
2013-02-10 19:25:00,29.9,16.1,30.29,SSE,150,1.0,8.0,56,0.00,,,0.03,Wunderground v.1.15,2013-02-11 00:25:00,
2013-02-10 19:30:00,29.8,16.0,30.29,SSE,167,1.0,1.0,56,0.00,,,0.03,Wunderground v.1.15,2013-02-11 00:30:00,
2013-02-10 19:35:00,29.9,15.7,30.29,SE,127,1.0,8.0,55,0.00,,,0.03,Wunderground v.1.15,2013-02-11 00:35:00,
2013-02-10 19:40:00,30.1,16.3,30.29,South,189,1.0,8.0,56,0.00,,,0.03,Wunderground v.1.15,2013-02-11 00:40:00,
2013-02-10 19:45:00,30.2,16.8,30.29,SE,132,1.0,8.0,57,0.00,,,0.03,Wunderground v.1.15,2013-02-11 00:45:00,
2013-02-10 19:50:00,30.5,15.4,30.29,South,172,1.0,8.0,53,0.00,,,0.03,Wunderground v.1.15,2013-02-11 00:50:00,
2013-02-10 19:55:00,30.9,15.8,30.29,SSW,208,1.0,8.0,53,0.00,,,0.03,Wunderground v.1.15,2013-02-11 00:55:00,
2013-02-10 20:00:00,30.9,16.2,30.29,South,190,1.0,8.0,54,0.00,,,0.03,Wunderground v.1.15,2013-02-11 01:00:00,
2013-02-10 20:05:00,31.2,16.0,30.29,SSE,160,1.0,8.0,53,0.00,,,0.03,Wunderground v.1.15,2013-02-11 01:05:00,
2013-02-10 20:10:00,31.3,17.0,30.29,SSW,199,1.0,8.0,55,0.00,,,0.03,Wunderground v.1.15,2013-02-11 01:10:00,
2013-02-10 20:15:00,31.5,15.9,30.28,SW,222,1.0,8.0,52,0.00,,,0.03,Wunderground v.1.15,2013-02-11 01:15:00,
2013-02-10 20:20:00,32.3,14.8,30.28,SW,228,1.0,1.0,48,0.00,,,0.03,Wunderground v.1.15,2013-02-11 01:20:00,
2013-02-10 20:25:00,32.9,15.8,30.28,SSW,205,2.0,2.0,49,0.00,,,0.03,Wunderground v.1.15,2013-02-11 01:25:00,
2013-02-10 20:30:00,33.3,15.2,30.28,South,170,1.0,8.0,47,0.00,,,0.03,Wunderground v.1.15,2013-02-11 01:30:00,
2013-02-10 20:35:00,33.7,15.1,30.27,SSW,193,1.0,8.0,46,0.00,,,0.03,Wunderground v.1.15,2013-02-11 01:35:00,
2013-02-10 20:40:00,33.9,14.3,30.27,SE,134,1.0,1.0,44,0.00,,,0.03,Wunderground v.1.15,2013-02-11 01:40:00,
2013-02-10 20:45:00,34.1,15.5,30.26,SSE,150,1.0,8.0,46,0.00,,,0.03,Wunderground v.1.15,2013-02-11 01:45:00,
2013-02-10 20:50:00,34.2,14.0,30.25,SSW,198,1.0,8.0,43,0.00,,,0.03,Wunderground v.1.15,2013-02-11 01:50:00,
2013-02-10 20:55:00,34.3,14.6,30.25,SSW,204,1.0,8.0,44,0.00,,,0.03,Wunderground v.1.15,2013-02-11 01:55:00,
2013-02-10 21:00:00,34.5,14.3,30.25,SSW,203,1.0,8.0,43,0.00,,,0.03,Wunderground v.1.15,2013-02-11 02:00:00,
2013-02-10 21:05:00,34.4,15.2,30.25,SSE,165,1.0,8.0,45,0.00,,,0.03,Wunderground v.1.15,2013-02-11 02:05:00,
2013-02-10 21:10:00,34.1,15.5,30.25,South,189,1.0,8.0,46,0.00,,,0.03,Wunderground v.1.15,2013-02-11 02:10:00,
2013-02-10 21:15:00,34.1,15.5,30.25,SW,217,1.0,8.0,46,0.00,,,0.03,Wunderground v.1.15,2013-02-11 02:15:00,
2013-02-10 21:20:00,34.1,14.9,30.25,SE,145,1.0,8.0,45,0.00,,,0.03,Wunderground v.1.15,2013-02-11 02:20:00,
2013-02-10 21:25:00,34.2,15.0,30.24,SSW,205,1.0,8.0,45,0.00,,,0.03,Wunderground v.1.15,2013-02-11 02:25:00,
2013-02-10 21:30:00,34.2,14.5,30.24,SE,124,1.0,8.0,44,0.00,,,0.03,Wunderground v.1.15,2013-02-11 02:30:00,
2013-02-10 21:35:00,34.4,14.2,30.24,SSW,212,2.0,8.0,43,0.00,,,0.03,Wunderground v.1.15,2013-02-11 02:35:00,
2013-02-10 21:40:00,34.5,14.3,30.24,SSW,193,2.0,2.0,43,0.00,,,0.03,Wunderground v.1.15,2013-02-11 02:40:00,
2013-02-10 21:45:00,34.5,14.8,30.24,SSE,165,1.0,3.0,44,0.00,,,0.03,Wunderground v.1.15,2013-02-11 02:45:00,
2013-02-10 21:50:00,34.5,14.8,30.24,South,189,1.0,8.0,44,0.00,,,0.03,Wunderground v.1.15,2013-02-11 02:50:00,
2013-02-10 21:55:00,34.5,14.3,30.23,SW,215,1.0,8.0,43,0.00,,,0.03,Wunderground v.1.15,2013-02-11 02:55:00,
2013-02-10 22:00:00,34.6,14.4,30.23,South,180,1.0,8.0,43,0.00,,,0.03,Wunderground v.1.15,2013-02-11 03:00:00,
2013-02-10 22:05:00,34.6,14.4,30.23,SW,228,1.0,8.0,43,0.00,,,0.03,Wunderground v.1.15,2013-02-11 03:05:00,
2013-02-10 22:10:00,34.7,14.5,30.23,SW,224,1.0,1.0,43,0.00,,,0.03,Wunderground v.1.15,2013-02-11 03:10:00,
2013-02-10 22:15:00,34.6,14.4,30.23,ESE,110,1.0,3.0,43,0.00,,,0.03,Wunderground v.1.15,2013-02-11 03:15:00,
2013-02-10 22:20:00,34.6,14.4,30.22,WSW,243,1.0,1.0,43,0.00,,,0.03,Wunderground v.1.15,2013-02-11 03:20:00,
2013-02-10 22:25:00,34.5,14.3,30.22,WSW,240,1.0,8.0,43,0.00,,,0.03,Wunderground v.1.15,2013-02-11 03:25:00,
2013-02-10 22:30:00,34.4,14.7,30.22,SW,222,1.0,1.0,44,0.00,,,0.03,Wunderground v.1.15,2013-02-11 03:30:00,
2013-02-10 22:35:00,34.4,14.2,30.22,SW,228,1.0,8.0,43,0.00,,,0.03,Wunderground v.1.15,2013-02-11 03:35:00,
2013-02-10 22:40:00,34.3,14.1,30.21,SW,233,1.0,1.0,43,0.00,,,0.03,Wunderground v.1.15,2013-02-11 03:40:00,
2013-02-10 22:45:00,34.3,14.6,30.20,SSE,162,1.0,5.0,44,0.00,,,0.03,Wunderground v.1.15,2013-02-11 03:45:00,
2013-02-10 22:50:00,34.2,14.5,30.21,SE,135,1.0,8.0,44,0.00,,,0.03,Wunderground v.1.15,2013-02-11 03:50:00,
2013-02-10 22:55:00,34.2,15.0,30.21,South,176,2.0,8.0,45,0.00,,,0.03,Wunderground v.1.15,2013-02-11 03:55:00,
2013-02-10 23:00:00,34.1,14.4,30.20,SE,129,2.0,2.0,44,0.00,,,0.03,Wunderground v.1.15,2013-02-11 04:00:00,
2013-02-10 23:05:00,34.0,14.3,30.20,SW,223,2.0,8.0,44,0.00,,,0.03,Wunderground v.1.15,2013-02-11 04:05:00,
2013-02-10 23:10:00,33.9,14.8,30.19,SSW,200,1.0,1.0,45,0.00,,,0.03,Wunderground v.1.15,2013-02-11 04:10:00,
2013-02-10 23:15:00,33.9,14.8,30.19,SSW,208,2.0,2.0,45,0.00,,,0.03,Wunderground v.1.15,2013-02-11 04:15:00,
2013-02-10 23:20:00,34.0,14.3,30.18,SSW,194,2.0,2.0,44,0.00,,,0.03,Wunderground v.1.15,2013-02-11 04:20:00,
2013-02-10 23:25:00,34.0,14.9,30.18,SSW,211,1.0,8.0,45,0.00,,,0.03,Wunderground v.1.15,2013-02-11 04:25:00,
2013-02-10 23:30:00,34.0,14.9,30.18,SW,224,2.0,8.0,45,0.00,,,0.03,Wunderground v.1.15,2013-02-11 04:30:00,
2013-02-10 23:35:00,34.0,15.4,30.18,SSW,198,2.0,8.0,46,0.00,,,0.03,Wunderground v.1.15,2013-02-11 04:35:00,
2013-02-10 23:40:00,33.9,15.8,30.17,SW,222,2.0,2.0,47,0.00,,,0.03,Wunderground v.1.15,2013-02-11 04:40:00,
2013-02-10 23:45:00,33.9,15.3,30.17,SSE,163,1.0,8.0,46,0.00,,,0.03,Wunderground v.1.15,2013-02-11 04:45:00,
2013-02-10 23:50:00,34.0,15.4,30.17,SW,219,2.0,8.0,46,0.00,,,0.03,Wunderground v.1.15,2013-02-11 04:50:00,
2013-02-10 23:55:00,34.0,15.4,30.17,SSW,205,2.0,8.0,46,0.00,,,0.03,Wunderground v.1.15,2013-02-11 04:55:00,